| time (UTC) | temp C | wind direction | speed KPH | gust KPH | rain 1hr cm | rain 24hr cm | rain mn cm | humidity % | barometer mb |
| 20260508004636 | 16 | 316 | 0.0 | 0.0 | 0.00 | 0.00 | 0.00 | 68 | 1012.5 |
| 20260508001636 | 16 | 7 | 0.0 | 0.0 | 0.00 | 0.00 | 0.00 | 69 | 1012.8 |
| 20260507234706 | 17 | 11 | 0.0 | 0.0 | 0.00 | 0.00 | 0.00 | 68 | 1012.9 |
| 20260507231634 | 16 | 13 | 0.0 | 3.2 | 0.00 | 0.00 | 0.00 | 67 | 1013.2 |
| 20260507224634 | 17 | 0 | 3.2 | 4.8 | 0.00 | 0.00 | 0.00 | 66 | 1013.2 |
| 20260507223134 | 17 | 56 | 3.2 | 6.4 | 0.00 | 0.00 | 0.00 | 60 | 1013.4 |
| 20260507214633 | 18 | 49 | 3.2 | 6.4 | 0.00 | 0.00 | 0.00 | 58 | 1013.5 |
| 20260507211633 | 18 | 45 | 6.4 | 8.0 | 0.00 | 0.00 | 0.00 | 52 | 1013.9 |
| 20260507204631 | 18 | 0 | 1.6 | 6.4 | 0.00 | 0.00 | 0.00 | 55 | 1014.0 |
| 20260507201631 | 18 | 305 | 3.2 | 6.4 | 0.00 | 0.00 | 0.00 | 56 | 1013.9 |
| 20260507194631 | 18 | 52 | 3.2 | 9.7 | 0.00 | 0.00 | 0.00 | 58 | 1013.7 |
| 20260507191630 | 19 | 113 | 1.6 | 8.0 | 0.00 | 0.00 | 0.00 | 59 | 1013.6 |
| 20260507184630 | 18 | 56 | 3.2 | 9.7 | 0.00 | 0.00 | 0.00 | 63 | 1013.2 |
| 20260507181630 | 21 | 92 | 6.4 | 8.0 | 0.00 | 0.00 | 0.00 | 58 | 1012.9 |
| 20260507174629 | 21 | 274 | 3.2 | 4.8 | 0.00 | 0.00 | 0.00 | 56 | 1012.8 |
| 20260507171629 | 21 | 296 | 4.8 | 9.7 | 0.00 | 0.00 | 0.00 | 55 | 1012.9 |
| 20260507164628 | 22 | 353 | 8.0 | 16.1 | 0.00 | 0.00 | 0.00 | 55 | 1012.7 |
| 20260507163133 | 22 | 0 | 4.8 | 19.3 | 0.00 | 0.00 | 0.00 | 54 | 1012.5 |
| 20260507154627 | 23 | 35 | 17.7 | 24.1 | 0.00 | 0.00 | 0.00 | 51 | 1012.2 |
| 20260507151627 | 24 | 41 | 16.1 | 24.1 | 0.00 | 0.00 | 0.00 | 50 | 1012.2 |
| 20260507144626 | 25 | 31 | 17.7 | 25.7 | 0.00 | 0.00 | 0.00 | 45 | 1012.6 |
| 20260507141627 | 26 | 37 | 20.9 | 25.7 | 0.00 | 0.00 | 0.00 | 41 | 1012.5 |
| 20260507134626 | 26 | 0 | 14.5 | 20.9 | 0.00 | 0.00 | 0.00 | 38 | 1012.4 |
| 20260507131626 | 27 | 23 | 9.7 | 19.3 | 0.00 | 0.00 | 0.00 | 39 | 1012.1 |
| 20260507124623 | 27 | 252 | 3.2 | 8.0 | 0.00 | 0.00 | 0.00 | 34 | 1012.5 |
| 20260507121624 | 26 | 49 | 4.8 | 9.7 | 0.00 | 0.00 | 0.00 | 38 | 1012.5 |
| 20260507114623 | 26 | 48 | 3.2 | 9.7 | 0.00 | 0.00 | 0.00 | 37 | 1012.9 |
| 20260507111622 | 26 | 234 | 1.6 | 6.4 | 0.00 | 0.00 | 0.00 | 37 | 1013.0 |
| 20260507110124 | 26 | 258 | 6.4 | 11.3 | 0.00 | 0.00 | 0.00 | 36 | 1013.2 |
| 20260507101623 | 25 | 0 | 3.2 | 11.3 | 0.00 | 0.00 | 0.00 | 42 | 1013.1 |
| 20260507094623 | 25 | 0 | 3.2 | 8.0 | 0.00 | 0.00 | 0.00 | 42 | 1013.2 |
| 20260507093138 | 23 | 20 | 3.2 | 9.7 | 0.00 | 0.00 | 0.00 | 43 | 1013.3 |
| 20260507084621 | 23 | 20 | 9.7 | 9.7 | 0.00 | 0.00 | 0.00 | 45 | 1013.3 |
| 20260507081621 | 21 | 0 | 3.2 | 8.0 | 0.00 | 0.00 | 0.00 | 51 | 1013.5 |
| 20260507074621 | 21 | 0 | 3.2 | 6.4 | 0.00 | 0.00 | 0.00 | 55 | 1013.2 |
| 20260507071620 | 19 | 0 | 3.2 | 8.0 | 0.00 | 0.00 | 0.00 | 59 | 1013.5 |
| 20260507070121 | 18 | 327 | 0.0 | 4.8 | 0.00 | 0.00 | 0.00 | 59 | 1013.7 |
| 20260507061618 | 17 | 341 | 3.2 | 6.4 | 0.00 | 0.00 | 0.00 | 62 | 1013.7 |
| 20260507054619 | 16 | 283 | 0.0 | 6.4 | 0.00 | 0.00 | 0.00 | 69 | 1013.7 |
| 20260507051619 | 14 | 254 | 3.2 | 4.8 | 0.00 | 0.00 | 0.00 | 74 | 1013.6 |
| 20260507044617 | 12 | 307 | 0.0 | 4.8 | 0.00 | 0.00 | 0.00 | 79 | 1013.3 |
| 20260507041617 | 11 | 296 | 3.2 | 6.4 | 0.00 | 0.00 | 0.00 | 80 | 1013.1 |
| 20260507034616 | 11 | 254 | 3.2 | 6.4 | 0.00 | 0.00 | 0.00 | 83 | 1013.0 |
| 20260507031616 | 11 | 264 | 1.6 | 9.7 | 0.00 | 0.00 | 0.00 | 81 | 1012.9 |
| 20260507030116 | 11 | 316 | 6.4 | 9.7 | 0.00 | 0.00 | 0.00 | 79 | 1012.6 |
| 20260507023116 | 11 | 314 | 4.8 | 8.0 | 0.00 | 0.00 | 0.00 | 80 | 1012.3 |
| 20260507014615 | 12 | 261 | 1.6 | 3.2 | 0.00 | 0.00 | 0.00 | 79 | 1012.2 |
| 20260507011615 | 12 | 195 | 0.0 | 6.4 | 0.00 | 0.00 | 0.00 | 77 | 1012.0 |